Latest Weather Observations for Yanakie

IDV60801

Issued at 5:02 pm EST Saturday 23 May 2015 (issued every 30 minutes, with the page automatically refreshed every 10 minutes)

About weather observations | Map of weather stations | Latest weather observations for VIC | Other Formats
Station Details ID: 085301 Name: YANAKIE Lat: -38.81 Lon: 146.19 Height: 13.3 m
Data from the previous 72 hours. | See also: Recent months at Yanakie
Date/Time
EST
Temp
°C
App
Temp
°C
Dew
Point
Rel
Hum
%
Delta-T
°C
Wind Press
QNH
hPa
Press
MSL
hPa
Rain
since 9 am
mm
Dir
 
Spd
km/h
Gust
km/h
Spd
kts
Gust
kts
23/05:00pm 10.9 6.5 7.4 79 1.7 W 20 26 11 14 1031.2 1031.2 0.0
23/04:30pm 11.4 7.3 7.9 79 1.7 WSW 19 24 10 13 1031.0 1031.0 0.0
23/04:00pm 11.5 7.1 7.6 77 1.9 WSW 20 28 11 15 1031.1 1031.1 0.0
23/03:30pm 11.9 7.6 7.8 76 2.0 WSW 20 28 11 15 1030.9 1030.9 0.0
23/03:00pm 12.1 7.4 7.8 75 2.1 WSW 22 30 12 16 1030.8 1030.8 0.0
23/02:30pm 12.3 7.3 8.0 75 2.1 WSW 24 30 13 16 1030.9 1030.9 0.0
23/02:00pm 12.5 8.3 8.2 75 2.1 WSW 20 28 11 15 1031.0 1031.0 0.0
23/01:30pm 12.7 8.6 8.6 76 2.0 WSW 20 30 11 16 1031.2 1031.2 0.0
23/01:00pm 12.6 8.0 8.1 74 2.2 W 22 32 12 17 1031.3 1031.3 0.0
23/12:30pm 12.8 7.8 8.1 73 2.3 WSW 24 32 13 17 1031.4 1031.4 0.0
23/12:00pm 13.8 8.9 8.6 71 2.6 W 24 32 13 17 1031.6 1031.6 0.0
23/11:30am 12.7 8.2 8.6 76 2.0 WSW 22 32 12 17 1032.0 1032.0 0.0
23/11:00am 12.5 7.5 8.0 74 2.2 WSW 24 32 13 17 1032.2 1032.2 0.0
23/10:30am 12.1 7.5 8.2 77 1.9 WSW 22 30 12 16 1032.3 1032.3 0.0
23/10:00am 12.0 7.0 7.9 76 2.0 WSW 24 32 13 17 1032.3 1032.3 0.0
23/09:30am 12.2 7.2 8.1 76 2.0 WSW 24 30 13 16 1032.2 1032.2 0.0
23/09:00am 11.5 6.8 7.6 77 1.9 WSW 22 28 12 15 1032.2 1032.2 0.0
23/08:30am 11.2 6.5 7.7 79 1.7 WSW 22 33 12 18 1031.9 1031.9 0.0
23/08:00am 10.9 6.5 7.2 78 1.7 WSW 20 30 11 16 1031.7 1031.7 0.0
23/07:30am 10.8 5.9 7.1 78 1.8 W 22 28 12 15 1031.4 1031.4 0.0
23/07:00am 10.6 5.3 6.9 78 1.7 WSW 24 32 13 17 1031.3 1031.3 0.0
23/06:30am 10.8 6.4 7.3 79 1.7 WSW 20 26 11 14 1031.0 1031.0 0.0
23/06:00am 10.9 6.5 7.2 78 1.8 WSW 20 28 11 15 1030.8 1030.8 0.0
23/05:30am 10.7 6.4 7.2 79 1.7 WSW 19 24 10 13 1030.8 1030.8 0.0
23/05:00am 10.7 6.4 7.2 79 1.7 WSW 19 26 10 14 1030.6 1030.6 0.0
23/04:30am 10.8 5.6 7.1 78 1.8 WSW 24 30 13 16 1030.3 1030.3 0.0
23/04:00am 10.8 5.6 7.1 78 1.7 WSW 24 33 13 18 1030.4 1030.4 0.0
23/03:30am 10.8 5.9 7.1 78 1.8 WSW 22 32 12 17 1030.3 1030.3 0.0
23/03:00am 10.8 6.3 7.1 78 1.7 WSW 20 28 11 15 1030.4 1030.4 0.0
23/02:30am 10.9 6.6 7.2 78 1.8 WSW 19 24 10 13 1030.6 1030.6 0.0
23/02:00am 10.7 6.2 6.8 77 1.8 SW 20 28 11 15 1030.7 1030.7 0.0
23/01:30am 10.8 6.5 6.9 77 1.8 SW 19 24 10 13 1030.7 1030.7 0.0
23/01:00am 10.9 7.0 7.0 77 1.8 SW 17 24 9 13 1030.8 1030.8 0.0
23/12:30am 10.8 6.3 6.9 77 1.8 SW 20 26 11 14 1031.0 1031.0 0.0
23/12:00am 10.6 6.2 6.7 77 1.8 SW 19 24 10 13 1031.2 1031.2 0.0
 
Date/Time
EST
Temp
°C
App
Temp
°C
Dew
Point
Rel
Hum
%
Delta-T
°C
Wind Press
QNH
hPa
Press
MSL
hPa
Rain
since 9 am
mm
Dir
 
Spd
km/h
Gust
km/h
Spd
kts
Gust
kts
22/11:30pm 11.0 7.1 7.3 78 1.8 SW 17 24 9 13 1031.1 1031.1 0.0
22/11:00pm 11.0 6.7 7.1 77 1.8 WSW 19 26 10 14 1031.0 1031.0 0.0
22/10:30pm 11.1 6.6 7.0 76 2.0 SW 20 28 11 15 1031.0 1031.0 0.0
22/10:00pm 11.4 6.2 7.1 75 2.0 SW 24 32 13 17 1031.0 1031.0 0.0
22/09:30pm 11.3 6.4 7.0 75 2.0 SW 22 30 12 16 1031.0 1031.0 0.0
22/09:00pm 11.4 6.6 7.3 76 2.0 SW 22 30 12 16 1031.0 1031.0 0.0
22/08:30pm 11.4 6.5 7.1 75 2.1 SW 22 30 12 16 1030.8 1030.8 0.0
22/08:00pm 11.3 7.4 7.0 75 2.0 SW 17 26 9 14 1030.6 1030.6 0.0
22/07:30pm 11.1 7.5 6.6 74 2.1 WSW 15 20 8 11 1030.4 1030.4 0.0
22/07:00pm 11.0 6.6 6.6 74 2.1 SW 19 32 10 17 1030.1 1030.1 0.0
22/06:30pm 11.1 5.4 6.8 75 2.0 SW 26 33 14 18 1030.0 1030.0 0.0
22/06:00pm 10.8 7.2 6.6 75 2.0 SW 15 19 8 10 1030.0 1030.0 0.0
22/05:30pm 11.1 6.6 7.0 76 2.0 SW 20 32 11 17 1029.9 1029.9 0.0
22/05:00pm 11.1 6.2 7.0 76 1.9 SW 22 28 12 15 1029.8 1029.8 0.0
22/04:30pm 11.4 7.6 7.5 77 1.9 SW 17 24 9 13 1029.7 1029.7 0.0
22/04:00pm 11.7 7.4 7.8 77 1.9 SW 20 28 11 15 1029.5 1029.5 0.0
22/03:30pm 12.0 7.4 8.1 77 1.9 SW 22 28 12 15 1029.4 1029.4 0.0
22/03:00pm 12.6 8.7 8.7 77 1.9 SW 19 24 10 13 1029.1 1029.1 0.0
22/02:30pm 13.1 9.1 9.2 77 2.0 SW 20 28 11 15 1028.8 1028.8 0.0
22/02:00pm 13.4 9.5 9.6 78 1.9 SW 20 28 11 15 1028.6 1028.6 0.0
22/01:30pm 13.7 9.6 10.1 79 1.9 SW 22 28 12 15 1028.7 1028.7 0.0
22/01:00pm 14.7 10.5 11.1 79 1.9 SW 24 32 13 17 1028.7 1028.7 0.0
22/12:30pm 13.6 9.9 10.0 79 1.9 SW 20 26 11 14 1028.7 1028.7 0.0
22/12:00pm 14.8 11.3 11.0 78 2.0 SW 20 26 11 14 1028.8 1028.8 0.0
22/11:30am 13.9 10.5 10.5 80 1.8 SW 19 24 10 13 1029.1 1029.1 0.0
22/11:00am 12.4 10.5 8.9 79 1.7 WNW 9 17 5 9 1029.6 1029.6 0.0
22/10:30am 11.5 9.4 8.2 80 1.6 WNW 9 11 5 6 1029.5 1029.5 0.0
22/10:00am 11.6 9.5 8.3 80 1.6 W 9 11 5 6 1029.5 1029.5 0.0
22/09:30am 12.3 11.2 8.6 78 1.8 NW 4 6 2 3 1029.4 1029.4 0.0
22/09:00am 11.8 10.4 8.8 82 1.5 NNW 6 6 3 3 1029.2 1029.2 3.8
22/08:30am 11.2 10.1 8.6 84 1.3 NNW 4 6 2 3 1029.2 1029.2 3.8
22/08:00am 10.3 9.5 8.1 86 1.1 NNW 2 2 1 1 1029.0 1029.0 3.8
22/07:30am 9.7 9.1 7.5 86 1.0 CALM 0 0 0 0 1028.6 1028.6 3.8
22/07:00am 9.6 8.9 7.0 84 1.2 CALM 0 0 0 0 1028.3 1028.3 3.8
22/06:30am 9.9 9.2 7.0 82 1.4 CALM 0 0 0 0 1027.9 1027.9 3.8
22/06:00am 10.3 9.1 6.5 77 1.8 NE 2 4 1 2 1027.6 1027.6 3.8
22/05:30am 11.0 9.0 6.2 72 2.2 E 6 9 3 5 1027.5 1027.5 3.8
22/05:00am 11.0 9.0 6.9 76 1.9 E 7 9 4 5 1027.3 1027.3 3.8
22/04:30am 10.5 8.8 7.7 83 1.3 E 6 9 3 5 1027.3 1027.3 3.8
22/04:00am 10.6 9.0 8.9 89 0.8 ESE 7 9 4 5 1027.2 1027.2 3.8
22/03:30am 9.0 7.7 7.8 92 0.6 SE 4 6 2 3 1027.2 1027.2 3.8
22/03:00am 8.6 7.2 7.4 92 0.6 SSE 4 6 2 3 1027.2 1027.2 3.8
22/02:30am 8.6 7.2 7.4 92 0.6 ESE 4 6 2 3 1027.1 1027.1 3.8
22/02:00am 8.0 6.5 6.8 92 0.6 SSE 4 4 2 2 1027.2 1027.2 3.8
22/01:30am 8.0 6.5 6.6 91 0.6 SE 4 6 2 3 1027.0 1027.0 3.8
22/01:00am 8.6 7.2 7.2 91 0.7 SSE 4 6 2 3 1027.2 1027.2 3.8
22/12:30am 8.2 6.3 6.7 90 0.7 SSE 6 6 3 3 1027.2 1027.2 3.8
22/12:00am 9.6 8.0 7.9 89 0.8 SE 6 9 3 5 1027.0 1027.0 3.8
 
Date/Time
EST
Temp
°C
App
Temp
°C
Dew
Point
Rel
Hum
%
Delta-T
°C
Wind Press
QNH
hPa
Press
MSL
hPa
Rain
since 9 am
mm
Dir
 
Spd
km/h
Gust
km/h
Spd
kts
Gust
kts
21/11:30pm 10.9 10.0 9.2 89 0.8 E 4 7 2 4 1026.9 1026.9 3.8
21/11:00pm 11.6 10.5 9.9 89 0.9 ESE 6 9 3 5 1026.9 1026.9 3.8
21/10:30pm 12.0 10.8 10.4 90 0.8 ESE 7 13 4 7 1027.0 1027.0 3.8
21/10:00pm 12.0 10.1 10.6 91 0.7 ESE 11 15 6 8 1026.8 1026.8 3.8
21/09:30pm 11.6 10.6 10.3 92 0.7 SE 6 9 3 5 1026.7 1026.7 3.8
21/09:00pm 11.2 10.1 10.1 93 0.6 SSE 6 9 3 5 1026.5 1026.5 3.8
21/08:30pm 11.5 10.0 10.4 93 0.6 ESE 9 15 5 8 1026.0 1026.0 3.8
21/08:00pm 11.5 10.4 10.6 94 0.5 E 7 13 4 7 1025.8 1025.8 3.8
21/07:30pm 12.0 10.3 11.1 94 0.5 ESE 11 15 6 8 1025.6 1025.6 3.8
21/07:00pm 12.0 11.1 11.2 95 0.4 SE 7 11 4 6 1025.4 1025.4 3.8
21/06:30pm 12.1 10.0 11.3 95 0.4 ESE 13 19 7 10 1025.0 1025.0 3.8
21/06:00pm 12.1 10.5 11.5 96 0.3 ESE 11 15 6 8 1024.5 1024.5 3.8
21/05:30pm 11.8 11.8 11.2 96 0.3 SE 2 4 1 2 1024.2 1024.2 3.8
21/05:00pm 11.9 11.9 11.3 96 0.3 ESE 2 4 1 2 1024.0 1024.0 3.8
21/04:30pm 12.1 12.6 11.5 96 0.3 CALM 0 2 0 1 1023.8 1023.8 3.8
21/04:00pm 12.1 12.5 11.3 95 0.4 CALM 0 0 0 0 1023.6 1023.6 3.8
21/03:30pm 11.9 12.3 11.1 95 0.4 CALM 0 2 0 1 1023.2 1023.2 3.6
21/03:00pm 12.0 11.6 11.2 95 0.4 NE 4 7 2 4 1022.9 1022.9 3.2
21/02:30pm 12.5 12.3 11.7 95 0.4 E 4 7 2 4 1022.6 1022.6 2.4
21/02:00pm 12.6 11.8 11.7 94 0.5 NNW 7 13 4 7 1022.2 1022.2 1.6
21/01:30pm 12.7 10.4 11.9 95 0.4 NW 15 20 8 11 1021.9 1021.9 1.6
21/01:00pm 12.8 10.2 12.0 95 0.4 NNW 17 22 9 12 1021.8 1021.8 1.4
21/12:30pm 12.8 10.2 12.0 95 0.4 NNW 17 22 9 12 1021.8 1021.8 1.4
21/12:00pm 13.1 11.0 12.3 95 0.4 NW 15 24 8 13 1021.8 1021.8 0.8
21/11:30am 13.1 9.7 12.5 96 0.3 W 22 30 12 16 1021.9 1021.9 0.8
21/11:00am 13.6 10.4 13.0 96 0.3 W 22 28 12 15 1021.9 1021.9 0.8
21/10:30am 13.4 10.5 12.8 96 0.3 WSW 20 26 11 14 1021.9 1021.9 0.8
21/10:00am 12.4 9.7 11.8 96 0.3 WSW 17 20 9 11 1021.9 1021.9 0.8
21/09:30am 11.3 8.7 10.7 96 0.3 WNW 15 24 8 13 1021.8 1021.8 0.6
21/09:00am 10.9 8.9 10.3 96 0.3 WNW 11 17 6 9 1021.6 1021.6 3.0
21/08:30am 10.6 7.8 10.0 96 0.3 WNW 15 19 8 10 1021.4 1021.4 2.8
21/08:00am 10.6 8.2 10.0 96 0.3 WNW 13 17 7 9 1021.1 1021.1 2.8
21/07:30am 10.7 8.3 10.1 96 0.3 W 13 20 7 11 1020.8 1020.8 2.8
21/07:00am 11.0 8.3 10.2 95 0.4 W 15 20 8 11 1020.4 1020.4 2.6
21/06:30am 11.0 8.2 10.1 94 0.5 WSW 15 20 8 11 1020.1 1020.1 1.8
21/06:00am 11.1 8.3 10.0 93 0.6 WSW 15 19 8 10 1019.7 1019.7 0.8
21/05:30am 11.4 8.6 10.1 92 0.7 SW 15 22 8 12 1019.4 1019.4 0.2
21/05:00am 11.7 8.3 10.4 92 0.7 SW 19 24 10 13 1019.0 1019.0 0.2
21/04:30am 11.5 8.4 10.4 93 0.6 SW 17 26 9 14 1018.6 1018.6 0.2
21/04:00am 11.3 7.2 10.2 93 0.6 SW 22 30 12 16 1018.4 1018.4 0.2
21/03:30am 11.6 6.8 10.3 92 0.7 SW 26 33 14 18 1018.2 1018.2 0.2
21/03:00am 12.3 8.5 11.2 93 0.6 SW 22 30 12 16 1018.2 1018.2 0.2
21/02:30am 12.4 9.6 11.3 93 0.6 SW 17 22 9 12 1018.1 1018.1 0.2
21/02:00am 12.2 8.8 11.1 93 0.6 SW 20 24 11 13 1017.9 1017.9 0.2
21/01:30am 12.2 8.4 11.1 93 0.6 SW 22 28 12 15 1017.6 1017.6 0.2
21/01:00am 12.1 7.9 11.0 93 0.6 SW 24 30 13 16 1017.5 1017.5 0.2
21/12:30am 12.3 7.4 11.2 93 0.6 SW 28 35 15 19 1017.3 1017.3 0.2
21/12:00am 12.5 7.2 11.4 93 0.6 SW 30 37 16 20 1017.0 1017.0 0.2
 
Date/Time
EST
Temp
°C
App
Temp
°C
Dew
Point
Rel
Hum
%
Delta-T
°C
Wind Press
QNH
hPa
Press
MSL
hPa
Rain
since 9 am
mm
Dir
 
Spd
km/h
Gust
km/h
Spd
kts
Gust
kts
20/11:30pm 13.0 8.7 11.9 93 0.6 SW 26 33 14 18 1016.6 1016.6 0.2
20/11:00pm 12.5 10.8 11.2 92 0.7 W 11 15 6 8 1016.3 1016.3 0.2
20/10:30pm 12.2 11.3 10.8 91 0.7 WNW 6 7 3 4 1016.2 1016.2 0.2
20/10:00pm 12.5 11.2 11.1 91 0.7 WNW 9 13 5 7 1015.9 1015.9 0.2
20/09:30pm 12.6 11.6 11.0 90 0.8 WNW 7 9 4 5 1015.7 1015.7 0.2
20/09:00pm 12.3 10.8 10.5 89 0.9 NNW 9 13 5 7 1015.3 1015.3 0.2
20/08:30pm 12.5 10.6 10.4 87 1.1 NNW 11 15 6 8 1015.0 1015.0 0.2
20/08:00pm 12.9 10.8 9.9 82 1.5 NNW 11 17 6 9 1014.8 1014.8 0.2
20/07:30pm 13.6 10.4 10.0 79 1.9 NNW 17 24 9 13 1014.3 1014.3 0.2
20/07:00pm 13.3 11.9 9.5 78 1.9 WNW 7 11 4 6 1013.9 1013.9 0.2
20/06:30pm 13.4 12.1 9.3 76 2.1 W 6 9 3 5 1013.5 1013.5 0.2
20/06:00pm 12.8 11.8 8.7 76 2.0 WNW 4 6 2 3 1012.9 1012.9 0.2
20/05:30pm 12.5 10.9 8.2 75 2.1 NW 6 7 3 4 1012.4 1012.4 0.2

Other Formats:

Comma delimited format used in spreadsheet applications
http://www.bom.gov.au/fwo/IDV60801/IDV60801.94911.axf

JavaScript Object Notation format (JSON) in row-major order
http://www.bom.gov.au/fwo/IDV60801/IDV60801.94911.json